User: anonymous   Login
Location: Potawatomi Wildlife Park
(41.2308°N, 86.1050°W)
Time: 10:08:14
(UTC-04:00)
Language:

SL-16 R/B - Orbit

View from above orbital plane
View from above orbital plane
View from above satellite
View from above satellite

Ground track
Ground track

The orbit data is extracted from the following two-line orbital elements,

1 27006U 01056F   15243.49637918 -.00000023  00000-0  21419-4 0  9996
2 27006 099.2179 037.1967 0014080 217.9307 186.2086 13.70963612686659
Epoch (UTC): 31 August 2015 11:54:47
Eccentricity: 0.0014080
inclination: 99.2179°
perigee height: 986 km
apogee height: 1006 km
right ascension of ascending node: 37.1967°
argument of perigee: 217.9307°
revolutions per day: 13.70963612
mean anomaly at epoch: 186.2086°
orbit number at epoch: 68665

The dashed part of the orbit path shows where the satellite is in the earth's shadow,  

DLR